Weather History for Mount Ida, AR

Change the Weather History Date:

Tuesday, May 6, 2014

  Actual Average (KHOT) Record (KHOT)
Temperature  
Mean Temperature 72 °F -  
Max Temperature 82 °F 79 °F 92 °F (1952)
Min Temperature 63 °F 56 °F 43 °F (1992)
Cooling Degree Days 7    
Growing Degree Days 22 (Base 50)    
Moisture  
Dew Point 59 °F    
Average Humidity 63    
Maximum Humidity 81    
Minimum Humidity 50    
Precipitation  
Precipitation 0.00 in - - ()
Sea Level Pressure  
Sea Level Pressure 29.79 in    
Wind  
Wind Speed 6 mph (SSW)    
Max Wind Speed 9 mph    
Max Gust Speed 18 mph    
Visibility 10 miles    
Events      
Averages and records for this station are not official NWS values.
T = Trace of Precipitation, MM = Missing Value Source: NWS Daily Summary

Daily Weather History Graph

Daily Weather History Graph

Search for Another Location

Airport:

Trip Planner

Search our weather history database for the weather conditions in past years. The results will help you decide how hot, cold, wet, or windy it might be!

Date:

Astronomy

May. 06, 2014 Rise Set
Actual Time 6:19 AM CDT 8:03 PM CDT
Civil Twilight 5:52 AM CDT 8:30 PM CDT
Nautical Twilight 5:19 AM CDT 9:03 PM CDT
Astronomical Twilight 4:44 AM CDT 9:38 PM CDT
Moon 12:32 PM CDT (5/6) 1:24 AM CDT (5/6)
Length of Visible Light 14h 38m
Length of Day
13h 43m
Waxing Crescent, 46% of the Moon is Illuminated
May 6
Waxing Crescent
May 6
First Quarter
May 14
Full
May 21
Last Quarter
May 28
New

Hourly Weather History & Observations

Time (CDT) Temp. Heat Index Dew Point Humidity Pressure Visibility Wind Dir Wind Speed Gust Speed Precip Events Conditions
12:53 AM 73.0 °F - 55.9 °F 55% 29.80 in 10.0 mi South 8.1 mph - N/A   Clear
1:53 AM 71.1 °F - 55.9 °F 59% 29.78 in 10.0 mi SW 5.8 mph - N/A   Clear
2:53 AM 69.1 °F - 57.0 °F 65% 29.77 in 10.0 mi Calm Calm - N/A   Clear
6:53 AM 63.0 °F - 57.0 °F 81% 29.80 in 10.0 mi North - - N/A   Clear
7:53 AM 64.9 °F - 57.9 °F 78% 29.81 in 10.0 mi WSW 8.1 mph - N/A   Scattered Clouds
8:06 AM 64.0 °F - 57.9 °F 80% 29.84 in 10.0 mi Variable 6.9 mph - N/A   Mostly Cloudy
9:26 AM 66.0 °F - 57.9 °F 75% 29.85 in 10.0 mi WSW 6.9 mph - N/A   Scattered Clouds
9:53 AM 66.9 °F - 57.9 °F 73% 29.83 in 10.0 mi Variable 5.8 mph - N/A   Partly Cloudy
10:43 AM 68.0 °F - 57.9 °F 70% 29.85 in 10.0 mi North - - N/A   Mostly Cloudy
10:53 AM 69.1 °F - 57.9 °F 68% 29.83 in 10.0 mi Variable 4.6 mph - N/A   Mostly Cloudy
11:25 AM 70.0 °F - 59.0 °F 68% 29.85 in 10.0 mi Variable 4.6 mph 16.1 mph N/A   Scattered Clouds
11:53 AM 71.1 °F - 59.0 °F 66% 29.82 in 10.0 mi Variable 5.8 mph - N/A   Partly Cloudy
12:53 PM 73.9 °F - 60.1 °F 62% 29.81 in 10.0 mi Variable 6.9 mph - N/A   Partly Cloudy
1:53 PM 77.0 °F - 62.1 °F 60% 29.79 in 10.0 mi Variable 5.8 mph - N/A   Partly Cloudy
2:53 PM 80.1 °F 81.2 °F 62.1 °F 54% 29.76 in 10.0 mi Variable 4.6 mph 18.4 mph N/A   Clear
3:53 PM 80.1 °F 81.5 °F 63.0 °F 56% 29.74 in 10.0 mi South 9.2 mph - N/A   Clear
4:53 PM 81.0 °F 81.9 °F 62.1 °F 52% 29.74 in 10.0 mi Variable 3.5 mph - N/A   Clear
5:53 PM 80.1 °F 80.9 °F 60.1 °F 50% 29.72 in 10.0 mi SSE 5.8 mph - N/A   Clear
6:53 PM 79.0 °F - 59.0 °F 50% 29.72 in 10.0 mi Variable 6.9 mph - N/A   Clear
7:53 PM 75.9 °F - 59.0 °F 56% 29.73 in 10.0 mi Calm Calm - N/A   Clear
8:53 PM 75.0 °F - 59.0 °F 57% 29.75 in 10.0 mi Calm Calm - N/A   Clear
9:53 PM 73.9 °F - 57.9 °F 57% 29.77 in 10.0 mi Calm Calm - N/A   Clear
10:53 PM 73.9 °F - 59.0 °F 59% 29.78 in 10.0 mi Variable 3.5 mph - N/A   Clear
11:53 PM 73.9 °F - 57.9 °F 57% 29.78 in 10.0 mi South 8.1 mph - N/A   Clear